Погода в Рамоново

Россия / Республика Северная Осетия — Алания     43°07′21″N   44°15′19″E
темп.,
°C
ветер,
м/с
пор.,
м/с
влажн.,
%
обл.,
%
осадки,
мм/ч
давл.,
гПа
погр.,
м
17 апреля, сб
сб1700:00+9ююз335115 0.0 101935
03:00+9ююз325017 0.0 101831
06:00+9ююз335467 0.0 101843
09:00+14с3347100 0.0 1017543
12:00+14с4363100 0.0 10201190
15:00+9ссз3391100 0.2 1021417
18:00+8с2395100 0.3 1022273
21:00+7ссв1194100 0.4 1023222
18 апреля, вс
вс1800:00+7ссв1195100 0.0 1022158
03:00+7ссв1196100 0.0 1021130
06:00+7ссв1194100 0.0 1021154
09:00+11ссв237853 0.0 1018479
12:00+13с327095 0.0 1017709
15:00+13ссв217499 0.1 1017672
18:00+11сз1190100 1.0 1018151
21:00+10ююв2290100 1.3 101840
19 апреля, пн
пн1900:00+9юз1184100 0.0 101820
03:00+9ююз1179100 0.0 101719
06:00+10юз227411 0.0 101824
09:00+16ссв225898 0.0 1016628
12:00+19ссв324988 0.0 10151095
15:00+20ссв434940 0.0 10131377
18:00+16ссв236615 0.1 1013132
21:00+13юз226660 0.1 101425
20 апреля, вт
вт2000:00+13ююз3358100 0.0 101245
03:00+14ю3455100 0.0 101059
06:00+15ююз2354100 0.0 100752
09:00+21юв0342100 0.0 1005523
12:00+24ююв2632100 0.0 10041365
15:00+26юз4627100 0.0 10031779
18:00+17зсз126392 0.2 100837
21:00+12ссз4595100 1.0 1013538
21 апреля, ср
ср2100:00+8ссв339299 4.8 1016356
03:00+7ю1285100 4.9 1019176
06:00+8всв1385100 0.1 1019361
09:00+8всв247897 0.1 1019620
12:00+9св3378100 0.1 1020728
15:00+9св347398 0.2 1020884
18:00+7св2483100 0.1 1022483
21:00+6в1293100 2.6 1023191